GW4386 Weather Reports


Display with metric or nautical units.
time (UTC)temp
F
wind
direction
speed
MPH
gust
MPH
rain 1hr
in
rain 24hr
in
rain mn
in
humidity
%
barometer
mb
20260509233058 39 340 0.0 2.0 0.00 0.00 0.00 81 1021.4
20260509232557 39 62 0.0 2.0 0.00 0.00 0.00 81 1021.6
20260509232058 39 360 0.0 3.0 0.00 0.00 0.00 81 1021.6
20260509231558 39 73 1.0 3.0 0.00 0.00 0.00 80 1021.7
20260509231058 39 55 2.0 3.0 0.00 0.00 0.00 79 1021.7
20260509230557 39 63 0.0 3.0 0.00 0.00 0.00 79 1021.7
20260509230106 40 51 0.0 3.0 0.00 0.00 0.00 79 1021.7
20260509225600 40 80 0.0 3.0 0.00 0.00 0.00 78 1021.7
20260509225058 40 72 0.0 3.0 0.00 0.00 0.00 78 1021.8
20260509224559 40 92 0.0 2.0 0.00 0.00 0.00 78 1021.8
20260509224059 40 78 0.0 2.0 0.00 0.00 0.00 77 1021.8
20260509223600 41 65 0.0 1.0 0.00 0.00 0.00 77 1021.8
20260509223101 41 140 0.0 1.0 0.00 0.00 0.00 77 1021.9
20260509222602 41 76 0.0 0.0 0.00 0.00 0.00 76 1021.8
20260509222059 41 41 0.0 1.0 0.00 0.00 0.00 76 1021.9
20260509221601 41 82 0.0 1.0 0.00 0.00 0.00 75 1021.9
20260509221059 41 71 0.0 1.0 0.00 0.00 0.00 75 1021.8
20260509220601 41 69 0.0 2.0 0.00 0.00 0.00 74 1021.8
20260509220105 42 70 0.0 2.0 0.00 0.00 0.00 73 1021.9
20260509215559 42 78 0.0 2.0 0.00 0.00 0.00 73 1021.9
20260509215501 42 82 0.0 2.0 0.00 0.00 0.00 73 1021.9
20260509215100 42 70 1.0 2.0 0.00 0.00 0.00 73 1021.9
20260509214559 43 68 0.0 3.0 0.00 0.00 0.00 72 1021.9
20260509214059 43 74 0.0 3.0 0.00 0.00 0.00 72 1021.9
20260509213559 43 65 0.0 2.0 0.00 0.00 0.00 72 1021.9
20260509213106 44 56 0.0 3.0 0.00 0.00 0.00 71 1022.0
20260509212559 44 65 0.0 3.0 0.00 0.00 0.00 70 1022.0
20260509212059 44 65 0.0 1.0 0.00 0.00 0.00 70 1022.0
20260509211606 45 351 0.0 1.0 0.00 0.00 0.00 69 1022.0
20260509211059 45 129 0.0 1.0 0.00 0.00 0.00 67 1022.0
20260509210600 45 98 0.0 1.0 0.00 0.00 0.00 66 1022.0
20260509205600 46 320 0.0 2.0 0.00 0.00 0.00 65 1022.0
20260509205104 46 34 0.0 0.0 0.00 0.00 0.00 65 1022.0
20260509204605 47 105 0.0 1.0 0.00 0.00 0.00 63 1022.0
20260509204100 47 302 0.0 2.0 0.00 0.00 0.00 61 1022.0
20260509203600 48 313 0.0 2.0 0.00 0.00 0.00 59 1022.0
20260509203102 48 283 0.0 2.0 0.00 0.00 0.00 59 1022.0
20260509202600 49 312 0.0 3.0 0.00 0.00 0.00 58 1022.0
20260509202059 49 312 0.0 2.0 0.00 0.00 0.00 57 1022.0
20260509201601 49 306 0.0 3.0 0.00 0.00 0.00 57 1022.0
20260509201100 50 320 0.0 3.0 0.00 0.00 0.00 55 1022.0
20260509200600 51 340 0.0 3.0 0.00 0.00 0.00 53 1021.9
20260509200100 51 298 1.0 3.0 0.00 0.00 0.00 53 1022.0
20260509200002 51 312 0.0 3.0 0.00 0.00 0.00 53 1021.9
20260509195600 51 115 0.0 1.0 0.00 0.00 0.00 54 1021.9
20260509195059 52 70 0.0 2.0 0.00 0.00 0.00 53 1021.9
20260509194602 52 74 0.0 3.0 0.00 0.00 0.00 51 1021.9
20260509194101 53 47 0.0 3.0 0.00 0.00 0.00 50 1021.9
20260509193559 53 61 1.0 4.0 0.00 0.00 0.00 49 1021.8
20260509193101 53 67 1.0 6.0 0.00 0.00 0.00 50 1021.8
20260509192602 54 57 1.0 6.0 0.00 0.00 0.00 50 1021.8
20260509192059 54 77 3.0 6.0 0.00 0.00 0.00 50 1021.8
20260509191611 54 44 0.0 4.0 0.00 0.00 0.00 51 1021.8
20260509191100 54 59 1.0 5.0 0.00 0.00 0.00 50 1021.7
20260509190559 54 67 1.0 5.0 0.00 0.00 0.00 49 1021.7
20260509190106 55 55 1.0 4.0 0.00 0.00 0.00 48 1021.7
20260509190003 55 57 1.0 4.0 0.00 0.00 0.00 48 1021.6
20260509185601 55 38 1.0 4.0 0.00 0.00 0.00 48 1021.6
20260509185059 55 72 1.0 5.0 0.00 0.00 0.00 47 1021.6
20260509184600 56 57 2.0 7.0 0.00 0.00 0.00 46 1021.5
20260509184058 57 61 0.0 7.0 0.00 0.00 0.00 44 1021.5
20260509183600 57 71 1.0 4.0 0.00 0.00 0.00 43 1021.4
20260509183059 58 63 2.0 6.0 0.00 0.00 0.00 42 1021.5
20260509182604 58 64 2.0 9.0 0.00 0.00 0.00 41 1021.4
20260509182059 58 53 3.0 9.0 0.00 0.00 0.00 41 1021.4
20260509181605 58 59 2.0 7.0 0.00 0.00 0.00 41 1021.3
20260509181100 59 44 4.0 11.0 0.00 0.00 0.00 41 1021.3
20260509180558 59 69 5.0 11.0 0.00 0.00 0.00 40 1021.3
20260509180100 59 54 3.0 9.0 0.00 0.00 0.00 40 1021.2
20260509175600 60 56 4.0 9.0 0.00 0.00 0.00 40 1021.2
20260509175100 60 71 3.0 10.0 0.00 0.00 0.00 40 1021.2
20260509174606 61 67 4.0 11.0 0.00 0.00 0.00 39 1021.1
20260509174100 61 69 4.0 13.0 0.00 0.00 0.00 38 1021.1
20260509173600 61 55 6.0 14.0 0.00 0.00 0.00 37 1021.1
20260509173117 62 55 6.0 14.0 0.00 0.00 0.00 37 1021.0
20260509172601 63 57 8.0 14.0 0.00 0.00 0.00 36 1020.9
20260509172059 63 64 4.0 10.0 0.00 0.00 0.00 36 1020.9
20260509172005 64 43 5.0 10.0 0.00 0.00 0.00 36 1020.9
20260509171605 64 57 4.0 10.0 0.00 0.00 0.00 36 1020.9
20260509171058 64 94 4.0 10.0 0.00 0.00 0.00 35 1020.8
20260509170603 65 112 3.0 12.0 0.00 0.00 0.00 35 1020.9
20260509170059 65 32 7.0 12.0 0.00 0.00 0.00 34 1020.8
20260509165559 65 101 3.0 10.0 0.00 0.00 0.00 33 1020.8
20260509165102 66 76 4.0 10.0 0.00 0.00 0.00 32 1020.7
20260509164600 67 57 3.0 8.0 0.00 0.00 0.00 31 1020.7
20260509164101 67 55 3.0 10.0 0.00 0.00 0.00 31 1020.8
20260509163604 67 66 4.0 10.0 0.00 0.00 0.00 31 1020.8
20260509163108 67 59 4.0 10.0 0.00 0.00 0.00 30 1020.7
20260509162559 67 324 4.0 8.0 0.00 0.00 0.00 30 1020.8
20260509162059 67 11 2.0 8.0 0.00 0.00 0.00 30 1020.7
20260509161606 67 336 3.0 9.0 0.00 0.00 0.00 30 1020.8
20260509161059 68 48 4.0 9.0 0.00 0.00 0.00 30 1020.8
20260509160559 68 88 4.0 9.0 0.00 0.00 0.00 29 1020.8
20260509160101 68 46 2.0 9.0 0.00 0.00 0.00 31 1020.8
20260509160002 68 48 1.0 9.0 0.00 0.00 0.00 32 1020.9
20260509155558 68 338 1.0 9.0 0.00 0.00 0.00 31 1020.9
20260509155103 69 75 4.0 9.0 0.00 0.00 0.00 30 1020.9
20260509154614 69 305 1.0 9.0 0.00 0.00 0.00 32 1020.9
20260509154101 69 349 3.0 8.0 0.00 0.00 0.00 32 1021.0
20260509153602 68 325 1.0 12.0 0.00 0.00 0.00 32 1021.0
20260509153059 68 53 3.0 12.0 0.00 0.00 0.00 31 1021.0
20260509152604 68 288 1.0 6.0 0.00 0.00 0.00 31 1020.9
20260509152059 66 246 0.0 6.0 0.00 0.00 0.00 32 1021.0
20260509151601 65 202 1.0 4.0 0.00 0.00 0.00 34 1021.0
20260509151058 65 235 1.0 4.0 0.00 0.00 0.00 34 1021.1
20260509150600 66 297 1.0 5.0 0.00 0.00 0.00 32 1021.2
20260509150100 66 29 2.0 8.0 0.00 0.00 0.00 31 1021.2
20260509150001 66 48 0.0 8.0 0.00 0.00 0.00 31 1021.2
20260509145559 67 319 4.0 11.0 0.00 0.00 0.00 30 1021.2
20260509145100 67 25 5.0 11.0 0.00 0.00 0.00 31 1021.2
20260509144612 69 41 2.0 9.0 0.00 0.00 0.00 30 1021.2
20260509144059 69 38 3.0 10.0 0.00 0.00 0.00 30 1021.2
20260509143559 69 71 5.0 10.0 0.00 0.00 0.00 31 1021.2
20260509143059 69 55 4.0 10.0 0.00 0.00 0.00 31 1021.2
20260509142558 70 57 3.0 9.0 0.00 0.00 0.00 31 1021.2
20260509142102 69 54 3.0 9.0 0.00 0.00 0.00 31 1021.3
20260509141559 68 68 5.0 10.0 0.00 0.00 0.00 31 1021.3
20260509141100 68 17 1.0 10.0 0.00 0.00 0.00 32 1021.3
20260509140559 67 57 2.0 10.0 0.00 0.00 0.00 33 1021.5
20260509140116 68 46 7.0 10.0 0.00 0.00 0.00 32 1021.5
20260509140002 68 38 5.0 10.0 0.00 0.00 0.00 33 1021.5
20260509135601 68 313 5.0 10.0 0.00 0.00 0.00 34 1021.6
20260509135059 68 254 2.0 9.0 0.00 0.00 0.00 34 1021.6
20260509134559 68 142 2.0 7.0 0.00 0.00 0.00 35 1021.6
20260509134059 67 294 4.0 7.0 0.00 0.00 0.00 36 1021.6
20260509133559 67 144 2.0 9.0 0.00 0.00 0.00 36 1021.6
20260509133105 64 44 2.0 9.0 0.00 0.00 0.00 39 1021.7
20260509133002 64 292 2.0 9.0 0.00 0.00 0.00 39 1021.7
20260509132559 64 29 4.0 9.0 0.00 0.00 0.00 38 1021.8
20260509132100 65 39 0.0 5.0 0.00 0.00 0.00 37 1021.9
20260509131602 66 22 2.0 8.0 0.00 0.00 0.00 36 1021.9
20260509131103 66 32 3.0 11.0 0.00 0.00 0.00 35 1021.9
20260509130600 67 36 4.0 10.0 0.00 0.00 0.00 36 1021.8
20260509130108 65 17 2.0 10.0 0.00 0.00 0.00 38 1021.9
20260509125600 65 294 4.0 10.0 0.00 0.00 0.00 39 1022.0
20260509125059 64 244 1.0 8.0 0.00 0.00 0.00 43 1022.1
20260509124616 64 27 2.0 11.0 0.00 0.00 0.00 42 1022.1
20260509124059 65 318 3.0 12.0 0.00 0.00 0.00 41 1022.2
20260509123600 66 298 4.0 12.0 0.00 0.00 0.00 39 1022.2
20260509123100 68 47 3.0 8.0 0.00 0.00 0.00 35 1022.2
20260509122600 66 325 1.0 12.0 0.00 0.00 0.00 37 1022.2
20260509122102 65 68 6.0 12.0 0.00 0.00 0.00 39 1022.3
20260509121616 63 26 4.0 11.0 0.00 0.00 0.00 41 1022.4
20260509121059 64 34 6.0 12.0 0.00 0.00 0.00 42 1022.4
20260509120559 63 321 2.0 14.0 0.00 0.00 0.00 41 1022.4
20260509120057 64 304 5.0 14.0 0.00 0.00 0.00 40 1022.4
20260509115600 64 179 6.0 10.0 0.00 0.00 0.00 41 1022.4
20260509115102 64 223 1.0 4.0 0.00 0.00 0.00 42 1022.5
20260509114602 63 214 1.0 11.0 0.00 0.00 0.00 44 1022.5
20260509114100 63 325 3.0 12.0 0.00 0.00 0.00 43 1022.6
20260509113559 65 69 5.0 12.0 0.00 0.00 0.00 40 1022.6
20260509113102 67 28 7.0 12.0 0.00 0.00 0.00 40 1022.6
20260509112601 65 107 1.0 4.0 0.00 0.00 0.00 42 1022.6
20260509112059 64 103 1.0 5.0 0.00 0.00 0.00 44 1022.7
20260509111607 62 57 1.0 6.0 0.00 0.00 0.00 47 1022.8
20260509111059 62 13 3.0 11.0 0.00 0.00 0.00 46 1022.8
20260509110559 62 13 4.0 11.0 0.00 0.00 0.00 46 1022.8
20260509110100 61 76 1.0 8.0 0.00 0.00 0.00 46 1022.8
20260509110001 62 311 2.0 8.0 0.00 0.00 0.00 45 1022.8
20260509105559 63 333 2.0 11.0 0.00 0.00 0.00 46 1022.8
20260509105059 62 30 5.0 14.0 0.00 0.00 0.00 45 1022.9
20260509104559 63 327 7.0 14.0 0.00 0.00 0.00 44 1022.8
20260509104059 65 313 3.0 13.0 0.00 0.00 0.00 43 1022.8
20260509103603 65 332 7.0 13.0 0.00 0.00 0.00 42 1022.9
20260509103104 66 92 3.0 10.0 0.00 0.00 0.00 43 1022.9
20260509102604 65 66 2.0 11.0 0.00 0.00 0.00 45 1023.0
20260509102100 65 115 5.0 10.0 0.00 0.00 0.00 43 1023.0
20260509101600 64 209 6.0 12.0 0.00 0.00 0.00 44 1023.1
20260509101059 63 177 6.0 12.0 0.00 0.00 0.00 45 1023.2
20260509100559 62 129 2.0 10.0 0.00 0.00 0.00 49 1023.3
20260509095600 60 34 7.0 14.0 0.00 0.00 0.00 50 1023.4
20260509095059 60 44 7.0 14.0 0.00 0.00 0.00 50 1023.4
20260509094558 61 52 4.0 11.0 0.00 0.00 0.00 48 1023.4
20260509094058 62 5 5.0 11.0 0.00 0.00 0.00 46 1023.4
20260509093558 62 98 5.0 11.0 0.00 0.00 0.00 50 1023.4
20260509093059 61 146 5.0 11.0 0.00 0.00 0.00 49 1023.4
20260509092600 61 92 5.0 11.0 0.00 0.00 0.00 48 1023.4
20260509092058 62 126 5.0 11.0 0.00 0.00 0.00 49 1023.4
20260509091559 61 62 3.0 10.0 0.00 0.00 0.00 51 1023.4
20260509091058 60 64 1.0 12.0 0.00 0.00 0.00 52 1023.4
20260509090559 61 34 5.0 16.0 0.00 0.00 0.00 51 1023.4
20260509090108 62 45 5.0 10.0 0.00 0.00 0.00 50 1023.4
20260509085558 62 350 4.0 10.0 0.00 0.00 0.00 50 1023.4
20260509085059 62 78 5.0 10.0 0.00 0.00 0.00 52 1023.4
20260509084603 61 132 4.0 10.0 0.00 0.00 0.00 52 1023.4
20260509084058 61 128 6.0 10.0 0.00 0.00 0.00 52 1023.5
20260509083557 61 17 4.0 9.0 0.00 0.00 0.00 52 1023.5
20260509083101 60 188 2.0 8.0 0.00 0.00 0.00 54 1023.5
20260509082600 59 87 2.0 7.0 0.00 0.00 0.00 58 1023.5
20260509082103 58 147 3.0 8.0 0.00 0.00 0.00 59 1023.6
20260509081558 58 309 0.0 9.0 0.00 0.00 0.00 59 1023.6
20260509081058 58 93 3.0 13.0 0.00 0.00 0.00 59 1023.7
20260509080559 58 57 6.0 14.0 0.00 0.00 0.00 59 1023.7
20260509080002 58 63 6.0 12.0 0.00 0.00 0.00 57 1023.7
20260509075559 57 146 1.0 14.0 0.00 0.00 0.00 59 1023.7
20260509075104 57 51 7.0 14.0 0.00 0.00 0.00 60 1023.7
20260509074602 57 33 7.0 12.0 0.00 0.00 0.00 61 1023.7
20260509074059 57 61 3.0 10.0 0.00 0.00 0.00 61 1023.8
20260509073558 57 68 5.0 11.0 0.00 0.00 0.00 60 1023.8
20260509073059 57 59 6.0 11.0 0.00 0.00 0.00 60 1023.8
20260509072602 57 53 5.0 10.0 0.00 0.00 0.00 62 1023.8
20260509072058 56 193 3.0 13.0 0.00 0.00 0.00 63 1023.9
20260509071558 56 36 7.0 13.0 0.00 0.00 0.00 62 1023.8
20260509071100 56 47 5.0 12.0 0.00 0.00 0.00 63 1023.8
20260509070600 56 340 7.0 12.0 0.00 0.00 0.00 62 1023.8
20260509070059 56 61 6.0 12.0 0.00 0.00 0.00 64 1023.7
20260509065558 55 74 6.0 11.0 0.00 0.00 0.00 65 1023.8
20260509065058 55 100 3.0 10.0 0.00 0.00 0.00 67 1023.8
20260509064558 55 47 5.0 11.0 0.00 0.00 0.00 67 1023.8
20260509064058 55 13 3.0 11.0 0.00 0.00 0.00 69 1023.7
20260509063558 54 346 3.0 7.0 0.00 0.00 0.00 71 1023.7
20260509063109 53 55 2.0 6.0 0.00 0.00 0.00 73 1023.7
20260509062559 53 15 3.0 7.0 0.00 0.00 0.00 73 1023.7
20260509062058 52 38 0.0 6.0 0.00 0.00 0.00 75 1023.7
20260509061558 52 67 2.0 5.0 0.00 0.00 0.00 77 1023.7
20260509061058 51 130 0.0 5.0 0.00 0.00 0.00 79 1023.6
20260509060601 50 105 2.0 5.0 0.00 0.00 0.00 79 1023.7
20260509060001 50 10 2.0 5.0 0.00 0.00 0.00 81 1023.7
20260509055559 49 69 1.0 5.0 0.00 0.00 0.00 82 1023.7
20260509055101 49 19 1.0 5.0 0.00 0.00 0.00 83 1023.7
20260509054614 48 40 1.0 3.0 0.00 0.00 0.00 84 1023.7
20260509054058 48 346 0.0 3.0 0.00 0.00 0.00 85 1023.6
20260509053601 47 85 0.0 3.0 0.00 0.00 0.00 86 1023.7
20260509053135 46 73 0.0 3.0 0.00 0.00 0.00 87 1023.7
20260509053004 46 52 0.0 3.0 0.00 0.00 0.00 87 1023.7
20260509052559 46 51 1.0 3.0 0.00 0.00 0.00 87 1023.8
20260509052101 45 59 0.0 2.0 0.00 0.00 0.00 88 1023.7
20260509051559 45 107 0.0 1.0 0.00 0.00 0.00 88 1023.7
20260509051100 44 111 0.0 1.0 0.00 0.00 0.00 88 1023.7
20260509050600 43 302 0.0 1.0 0.00 0.00 0.00 88 1023.7
20260509050100 43 302 0.0 2.0 0.00 0.00 0.00 88 1023.6
20260509045558 43 62 0.0 2.0 0.00 0.00 0.00 92 1023.6
20260509045102 43 242 0.0 1.0 0.00 0.00 0.00 88 1023.4
20260509044558 42 162 0.0 1.0 0.00 0.00 0.00 88 1023.4
20260509044100 42 135 0.0 1.0 0.00 0.00 0.00 88 1023.5
20260509043558 42 87 0.0 1.0 0.00 0.00 0.00 88 1023.6
20260509043107 41 75 0.0 1.0 0.00 0.00 0.00 88 1023.6
20260509042601 41 83 0.0 0.0 0.00 0.00 0.00 88 1023.6
20260509042058 40 135 0.0 1.0 0.00 0.00 0.00 88 1023.5
20260509041604 40 131 0.0 1.0 0.00 0.00 0.00 88 1023.6
20260509041106 40 43 0.0 0.0 0.00 0.00 0.00 88 1023.5
20260509040602 40 43 0.0 0.0 0.00 0.00 0.00 88 1023.5
20260509040118 40 43 0.0 0.0 0.00 0.00 0.00 88 1023.4
20260509035558 40 43 0.0 0.0 0.00 0.00 0.00 88 1023.4
20260509035059 39 43 0.0 0.0 0.00 0.00 0.00 88 1023.3
20260509034606 39 43 0.0 1.0 0.00 0.00 0.00 88 1023.3
20260509034057 39 190 0.0 1.0 0.00 0.00 0.00 88 1023.2
20260509033558 39 80 0.0 0.0 0.00 0.00 0.00 88 1023.4
20260509033059 39 68 0.0 1.0 0.00 0.00 0.00 88 1023.4
20260509032558 39 315 0.0 1.0 0.00 0.00 0.00 88 1023.4
20260509032058 39 308 0.0 1.0 0.00 0.00 0.00 88 1023.4
20260509031607 39 308 0.0 1.0 0.00 0.00 0.00 88 1023.3
20260509031058 39 131 0.0 0.0 0.00 0.00 0.00 88 1023.2
20260509030601 39 103 0.0 0.0 0.00 0.00 0.00 88 1023.2
20260509030058 39 76 0.0 0.0 0.00 0.00 0.00 88 1023.2
20260509025558 39 82 0.0 2.0 0.00 0.00 0.00 88 1023.2
20260509025057 39 36 0.0 2.0 0.00 0.00 0.00 88 1023.1
20260509024600 39 147 0.0 0.0 0.00 0.00 0.00 88 1023.0
20260509024058 40 215 0.0 0.0 0.00 0.00 0.00 88 1023.1
20260509023558 40 52 0.0 0.0 0.00 0.00 0.00 88 1023.2
20260509023059 40 52 0.0 1.0 0.00 0.00 0.00 88 1023.2
20260509022602 41 43 0.0 1.0 0.00 0.00 0.00 88 1023.2
20260509022059 41 40 0.0 0.0 0.00 0.00 0.00 88 1023.2
20260509021558 41 41 0.0 0.0 0.00 0.00 0.00 87 1023.2
20260509021058 42 34 0.0 0.0 0.00 0.00 0.00 87 1023.3
20260509020557 42 326 0.0 0.0 0.00 0.00 0.00 87 1023.3
20260509020057 42 326 0.0 0.0 0.00 0.00 0.00 87 1023.3
20260509015558 42 63 0.0 0.0 0.00 0.00 0.00 87 1023.3
20260509015058 43 57 0.0 0.0 0.00 0.00 0.00 87 1023.3
20260509014603 43 57 0.0 0.0 0.00 0.00 0.00 87 1023.3
20260509014058 43 128 0.0 0.0 0.00 0.00 0.00 87 1023.3
20260509013558 43 68 0.0 1.0 0.00 0.00 0.00 87 1023.2
20260509013103 43 70 0.0 3.0 0.00 0.00 0.00 87 1023.2
20260509012557 43 76 0.0 3.0 0.00 0.00 0.00 86 1023.1
20260509012100 43 48 1.0 3.0 0.00 0.00 0.00 86 1023.0
20260509011558 44 59 0.0 2.0 0.00 0.00 0.00 85 1022.9
20260509011101 44 44 0.0 2.0 0.00 0.00 0.00 85 1022.9
20260509010558 44 54 0.0 3.0 0.00 0.00 0.00 85 1022.8
20260509010058 45 41 1.0 3.0 0.00 0.00 0.00 84 1022.8
20260509005602 45 51 0.0 2.0 0.00 0.00 0.00 83 1022.8
20260509005059 45 323 0.0 1.0 0.00 0.00 0.00 83 1022.8
20260509004602 46 253 0.0 1.0 0.00 0.00 0.00 82 1022.8
20260509004058 46 43 0.0 1.0 0.00 0.00 0.00 82 1022.8
20260509003558 46 282 0.0 1.0 0.00 0.00 0.00 81 1022.8
20260509003058 46 309 0.0 3.0 0.00 0.00 0.00 81 1022.9
20260509002559 47 26 0.0 3.0 0.00 0.00 0.00 81 1022.9
20260509002058 47 49 0.0 1.0 0.00 0.00 0.00 81 1022.9
20260509001558 47 315 0.0 1.0 0.00 0.00 0.00 81 1022.9
20260509001057 47 340 0.0 1.0 0.00 0.00 0.00 81 1022.9
20260509001001 47 305 0.0 1.0 0.00 0.00 0.00 81 1022.9
20260509000558 46 335 0.0 1.0 0.00 0.00 0.00 81 1022.9
20260509000059 46 317 0.0 1.0 0.00 0.00 0.00 80 1023.0
20260508235558 46 306 0.0 1.0 0.00 0.00 0.00 80 1023.0
20260508235057 46 313 0.0 1.0 0.00 0.00 0.00 80 1023.1
20260508234557 46 331 0.0 1.0 0.00 0.00 0.00 79 1023.1
20260508234058 46 326 0.0 1.0 0.00 0.00 0.00 78 1023.1
20260508233559 47 331 0.0 1.0 0.00 0.00 0.00 78 1023.1